�������l�o���
Date,Time,MP-1(��Sv/h),MP-2(��Sv/h),MP-3(��Sv/h),MP-4(��Sv/h),MP-5(��Sv/h),MP-6(��Sv/h),MP-7(��Sv/h),MP-8(��Sv/h),����,����(m/s),���J
2017/07/09,00:00,1.005,1.590,1.059,1.876,1.307,0.534,0.970,0.894,-,CALM,��
2017/07/09,00:10,1.005,1.589,1.059,1.878,1.310,0.537,0.972,0.894,-,CALM,��
2017/07/09,00:20,1.004,1.588,1.057,1.877,1.311,0.535,0.969,0.893,-,CALM,��
2017/07/09,00:30,1.003,1.590,1.057,1.878,1.312,0.537,0.972,0.894,-,CALM,��
2017/07/09,00:40,1.004,1.590,1.056,1.876,1.309,0.535,0.971,0.894,-,CALM,��
2017/07/09,00:50,1.003,1.589,1.057,1.873,1.311,0.536,0.972,0.895,-,CALM,��
2017/07/09,01:00,1.004,1.588,1.058,1.876,1.310,0.534,0.971,0.893,-,CALM,��
2017/07/09,01:10,1.002,1.589,1.057,1.876,1.312,0.534,0.973,0.895,-,CALM,��
2017/07/09,01:20,1.004,1.590,1.057,1.875,1.308,0.535,0.971,0.895,���쓌,0.6,��
2017/07/09,01:30,1.003,1.590,1.055,1.879,1.312,0.534,0.971,0.895,-,CALM,��
2017/07/09,01:40,1.004,1.589,1.057,1.877,1.309,0.534,0.972,0.895,��,0.6,��
2017/07/09,01:50,1.003,1.589,1.057,1.876,1.311,0.535,0.971,0.893,���k��,0.9,��
2017/07/09,02:00,1.002,1.590,1.054,1.876,1.311,0.535,0.971,0.892,�k,0.8,��
2017/07/09,02:10,1.002,1.590,1.057,1.876,1.311,0.536,0.971,0.893,�k,0.6,��
2017/07/09,02:20,1.003,1.590,1.057,1.872,1.311,0.534,0.973,0.894,�k�k��,0.9,��
2017/07/09,02:30,1.004,1.583,1.056,1.876,1.312,0.535,0.973,0.894,�k�k��,0.9,��
2017/07/09,02:40,1.002,1.587,1.058,1.875,1.311,0.534,0.969,0.895,�k�k��,1.2,��
2017/07/09,02:50,1.000,1.590,1.058,1.876,1.308,0.537,0.970,0.894,�k�k��,1.4,��
2017/07/09,03:00,0.999,1.590,1.058,1.876,1.311,0.536,0.970,0.892,�k�k��,2.0,��
2017/07/09,03:10,1.001,1.588,1.055,1.873,1.308,0.534,0.974,0.892,�k�k��,3.0,��
2017/07/09,03:20,1.002,1.589,1.058,1.876,1.307,0.534,0.970,0.895,�k,3.2,��
2017/07/09,03:30,1.001,1.590,1.055,1.876,1.309,0.536,0.970,0.895,�k,2.8,��
2017/07/09,03:40,1.000,1.589,1.057,1.878,1.307,0.534,0.973,0.894,�k�k��,2.9,��
2017/07/09,03:50,1.002,1.586,1.056,1.877,1.309,0.534,0.972,0.894,�k�k��,2.9,��
2017/07/09,04:00,1.000,1.585,1.055,1.876,1.307,0.535,0.972,0.893,�k,3.1,��
2017/07/09,04:10,1.001,1.586,1.056,1.875,1.310,0.535,0.971,0.893,�k,3.2,��
2017/07/09,04:20,1.002,1.588,1.055,1.875,1.310,0.534,0.970,0.894,�k,3.2,��
2017/07/09,04:30,1.002,1.586,1.055,1.874,1.309,0.533,0.971,0.895,�k�k��,2.6,��
2017/07/09,04:40,1.000,1.585,1.055,1.872,1.307,0.535,0.970,0.894,�k,2.5,��
2017/07/09,04:50,1.000,1.585,1.056,1.875,1.309,0.535,0.970,0.893,�k,2.6,��
2017/07/09,05:00,1.001,1.587,1.056,1.877,1.309,0.534,0.969,0.895,�k,2.9,��
2017/07/09,05:10,0.997,1.586,1.057,1.875,1.309,0.535,0.968,0.893,�k,2.8,��
2017/07/09,05:20,1.000,1.585,1.054,1.874,1.308,0.535,0.969,0.893,�k�k��,3.3,��
2017/07/09,05:30,1.000,1.586,1.056,1.874,1.309,0.533,0.970,0.895,�k,4.3,��
2017/07/09,05:40,0.997,1.585,1.054,1.875,1.307,0.534,0.969,0.894,�k,4.1,��
2017/07/09,05:50,0.999,1.585,1.055,1.874,1.310,0.534,0.969,0.895,�k,5.0,��
2017/07/09,06:00,0.999,1.587,1.055,1.872,1.308,0.534,0.971,0.895,�k�k��,4.1,��
2017/07/09,06:10,1.000,1.588,1.056,1.877,1.310,0.534,0.970,0.895,�k,4.1,��
2017/07/09,06:20,1.000,1.591,1.057,1.878,1.307,0.535,0.971,0.894,�k,2.9,��
2017/07/09,06:30,1.000,1.585,1.056,1.875,1.308,0.536,0.972,0.896,�k,3.2,��
2017/07/09,06:40,0.999,1.590,1.054,1.880,1.310,0.534,0.971,0.895,�k�k��,3.1,��
2017/07/09,06:50,0.999,1.587,1.055,1.876,1.310,0.534,0.971,0.896,�k,2.6,��
2017/07/09,07:00,1.002,1.585,1.056,1.876,1.306,0.532,0.972,0.895,�k,2.5,��
2017/07/09,07:10,1.000,1.585,1.055,1.877,1.308,0.534,0.972,0.895,�k�k��,2.3,��
2017/07/09,07:20,1.002,1.586,1.056,1.877,1.305,0.531,0.970,0.895,�k,2.5,��
2017/07/09,07:30,1.000,1.585,1.056,1.877,1.306,0.532,0.969,0.895,�k,2.6,��
2017/07/09,07:40,0.999,1.587,1.055,1.877,1.307,0.532,0.969,0.896,�k,3.6,��
2017/07/09,07:50,1.000,1.587,1.055,1.878,1.307,0.531,0.969,0.897,�k,3.8,��
2017/07/09,08:00,0.999,1.589,1.058,1.876,1.308,0.533,0.970,0.893,�k�k��,4.1,��
2017/07/09,08:10,0.998,1.589,1.054,1.877,1.308,0.534,0.971,0.892,�k�k��,4.8,��
2017/07/09,08:20,1.001,1.590,1.055,1.879,1.308,0.534,0.969,0.891,�k,4.6,��
2017/07/09,08:30,1.001,1.590,1.056,1.878,1.310,0.533,0.970,0.892,�k�k��,4.4,��
2017/07/09,08:40,1.000,1.589,1.057,1.881,1.312,0.533,0.971,0.893,�k�k��,4.4,��
2017/07/09,08:50,0.999,1.589,1.058,1.879,1.308,0.532,0.971,0.893,�k�k��,3.9,��
2017/07/09,09:00,0.999,1.590,1.056,1.877,1.312,0.533,0.971,0.892,�k�k��,4.0,��
2017/07/09,09:10,1.003,1.588,1.058,1.878,1.311,0.532,0.972,0.892,�k�k��,3.4,��
2017/07/09,09:20,1.003,1.591,1.058,1.880,1.312,0.531,0.974,0.892,�k��,3.3,��
2017/07/09,09:30,1.003,1.588,1.056,1.880,1.313,0.532,0.974,0.893,�k�k��,3.6,��
2017/07/09,09:40,1.002,1.588,1.057,1.880,1.314,0.533,0.973,0.894,�k�k��,3.5,��
2017/07/09,09:50,1.004,1.591,1.059,1.880,1.312,0.532,0.974,0.891,�k��,3.1,��
2017/07/09,10:00,1.004,1.591,1.059,1.884,1.314,0.533,0.972,0.894,�k��,2.9,��
2017/07/09,10:10,1.004,1.591,1.060,1.885,1.313,0.533,0.970,0.893,�k��,2.8,��
2017/07/09,10:20,1.006,1.593,1.059,1.882,1.315,0.534,0.971,0.894,�k��,2.2,��
2017/07/09,10:30,1.005,1.594,1.058,1.881,1.318,0.533,0.971,0.894,�k��,2.3,��
2017/07/09,10:40,1.005,1.595,1.060,1.882,1.316,0.534,0.974,0.894,�k��,2.5,��
2017/07/09,10:50,1.005,1.596,1.060,1.883,1.317,0.534,0.972,0.893,���k��,2.2,��
2017/07/09,11:00,1.006,1.597,1.060,1.884,1.319,0.536,0.971,0.895,��,2.2,��
2017/07/09,11:10,1.007,1.596,1.060,1.880,1.318,0.535,0.973,0.894,���쓌,1.9,��
2017/07/09,11:20,1.007,1.595,1.060,1.883,1.317,0.536,0.973,0.895,���쓌,2.3,��
2017/07/09,11:30,1.007,1.598,1.063,1.880,1.321,0.535,0.973,0.897,���쓌,2.6,��
2017/07/09,11:40,1.007,1.596,1.061,1.882,1.321,0.536,0.974,0.893,���쓌,3.4,��
2017/07/09,11:50,1.008,1.598,1.064,1.881,1.320,0.536,0.973,0.894,���쓌,3.4,��
2017/07/09,12:00,1.007,1.600,1.064,1.886,1.323,0.535,0.973,0.895,���쓌,3.2,��
2017/07/09,12:10,1.008,1.597,1.061,1.887,1.321,0.536,0.973,0.895,�쓌,3.6,��
2017/07/09,12:20,1.008,1.601,1.062,1.885,1.322,0.536,0.973,0.894,�쓌,2.8,��
2017/07/09,12:30,1.007,1.599,1.064,1.885,1.323,0.536,0.973,0.894,���쓌,2.6,��
2017/07/09,12:40,1.006,1.599,1.063,1.885,1.323,0.536,0.975,0.895,�쓌,3.0,��
2017/07/09,12:50,1.009,1.599,1.065,1.885,1.324,0.536,0.975,0.893,�쓌,3.3,��
2017/07/09,13:00,1.006,1.600,1.065,1.888,1.323,0.536,0.976,0.896,�쓌,3.3,��
2017/07/09,13:10,1.008,1.602,1.063,1.888,1.324,0.538,0.973,0.896,�쓌,2.9,��
2017/07/09,13:20,1.010,1.602,1.067,1.885,1.324,0.536,0.973,0.895,�쓌,2.6,��
2017/07/09,13:30,1.009,1.605,1.065,1.887,1.324,0.536,0.974,0.895,�쓌,3.1,��
2017/07/09,13:40,1.010,1.602,1.065,1.889,1.325,0.538,0.974,0.895,�쓌,3.0,��
2017/07/09,13:50,1.009,1.605,1.066,1.891,1.325,0.537,0.975,0.895,�쓌,3.4,��
2017/07/09,14:00,1.009,1.603,1.066,1.890,1.328,0.537,0.974,0.896,�쓌,2.6,��
2017/07/09,14:10,1.013,1.602,1.066,1.890,1.327,0.537,0.975,0.894,�쓌,3.3,��
2017/07/09,14:20,1.011,1.604,1.069,1.889,1.327,0.536,0.973,0.896,�쓌,3.2,��
2017/07/09,14:30,1.010,1.604,1.065,1.892,1.328,0.537,0.975,0.895,�쓌,3.0,��
2017/07/09,14:40,1.011,1.607,1.064,1.891,1.326,0.536,0.974,0.898,�쓌,3.2,��
2017/07/09,14:50,1.010,1.604,1.064,1.890,1.326,0.535,0.974,0.897,�쓌,3.4,��
2017/07/09,15:00,1.011,1.601,1.065,1.889,1.328,0.535,0.973,0.896,�쓌,3.4,��
2017/07/09,15:10,1.010,1.605,1.065,1.889,1.328,0.536,0.974,0.897,�쓌,3.7,��
2017/07/09,15:20,1.010,1.604,1.066,1.889,1.325,0.536,0.974,0.898,��쓌,3.4,��
2017/07/09,15:30,1.011,1.604,1.066,1.891,1.328,0.534,0.975,0.897,�쓌,3.8,��
2017/07/09,15:40,1.011,1.606,1.066,1.890,1.329,0.534,0.974,0.897,�쓌,4.0,��
2017/07/09,15:50,1.011,1.604,1.066,1.891,1.327,0.535,0.976,0.899,�쓌,3.3,��
2017/07/09,16:00,1.012,1.604,1.068,1.891,1.329,0.534,0.974,0.898,��쓌,3.2,��
2017/07/09,16:10,1.013,1.601,1.066,1.892,1.326,0.535,0.975,0.897,��쓌,3.0,��
2017/07/09,16:20,1.010,1.604,1.066,1.892,1.330,0.535,0.973,0.898,��,3.0,��
2017/07/09,16:30,1.010,1.604,1.069,1.891,1.327,0.535,0.973,0.898,��쓌,2.5,��
2017/07/09,16:40,1.010,1.604,1.065,1.890,1.329,0.534,0.974,0.896,��,2.0,��
2017/07/09,16:50,1.010,1.603,1.065,1.892,1.328,0.534,0.977,0.896,��쓌,2.6,��
2017/07/09,17:00,1.011,1.606,1.067,1.891,1.326,0.533,0.976,0.898,��쓌,2.3,��
2017/07/09,17:10,1.008,1.606,1.067,1.890,1.327,0.531,0.973,0.897,��쓌,3.0,��
2017/07/09,17:20,1.009,1.607,1.066,1.890,1.326,0.533,0.972,0.895,��쓌,3.3,��
2017/07/09,17:30,1.009,1.604,1.066,1.893,1.327,0.533,0.974,0.896,��쓌,3.3,��
2017/07/09,17:40,1.008,1.603,1.066,1.890,1.325,0.534,0.974,0.894,��쓌,2.6,��
2017/07/09,17:50,1.008,1.603,1.065,1.891,1.327,0.534,0.974,0.895,��,2.8,��
2017/07/09,18:00,1.009,1.602,1.067,1.892,1.325,0.533,0.975,0.895,��쐼,2.3,��
2017/07/09,18:10,1.007,1.601,1.064,1.892,1.324,0.533,0.976,0.896,��쐼,2.2,��
2017/07/09,18:20,1.008,1.601,1.066,1.892,1.327,0.533,0.972,0.893,��,1.7,��
2017/07/09,18:30,1.008,1.600,1.064,1.890,1.327,0.533,0.973,0.894,��쐼,1.2,��
2017/07/09,18:40,1.009,1.601,1.063,1.890,1.327,0.534,0.973,0.895,�쐼,0.9,��
2017/07/09,18:50,1.008,1.603,1.065,1.890,1.329,0.533,0.974,0.894,��쐼,0.6,��
2017/07/09,19:00,1.007,1.607,1.064,1.891,1.327,0.535,0.974,0.893,-,CALM,��
2017/07/09,19:10,1.009,1.604,1.066,1.891,1.328,0.534,0.972,0.893,��,0.9,��
2017/07/09,19:20,1.008,1.604,1.066,1.891,1.325,0.535,0.972,0.892,��,0.8,��
2017/07/09,19:30,1.007,1.603,1.065,1.891,1.327,0.533,0.974,0.894,���쐼,0.9,��
2017/07/09,19:40,1.008,1.603,1.068,1.893,1.325,0.534,0.971,0.893,��쐼,0.9,��
2017/07/09,19:50,1.007,1.604,1.066,1.892,1.325,0.536,0.973,0.894,�쐼,1.2,��
2017/07/09,20:00,1.009,1.603,1.067,1.890,1.326,0.534,0.974,0.896,�쐼,1.2,��
2017/07/09,20:10,1.006,1.601,1.067,1.891,1.326,0.535,0.973,0.896,�쐼,1.5,��
2017/07/09,20:20,1.008,1.602,1.065,1.892,1.327,0.536,0.973,0.895,��쐼,0.6,��
2017/07/09,20:30,1.008,1.604,1.065,1.892,1.326,0.534,0.972,0.898,�쐼,0.9,��
2017/07/09,20:40,1.007,1.602,1.068,1.894,1.324,0.535,0.976,0.896,�쐼,0.6,��
2017/07/09,20:50,1.009,1.604,1.067,1.889,1.327,0.535,0.973,0.898,-,CALM,��
2017/07/09,21:00,1.010,1.603,1.067,1.890,1.328,0.536,0.972,0.896,���쐼,0.6,��
2017/07/09,21:10,1.007,1.604,1.066,1.895,1.326,0.536,0.974,0.898,��,0.8,��
2017/07/09,21:20,1.009,1.603,1.066,1.893,1.325,0.536,0.976,0.896,-,CALM,��
2017/07/09,21:30,1.008,1.605,1.065,1.891,1.326,0.535,0.973,0.896,�k��,0.6,��
2017/07/09,21:40,1.009,1.603,1.064,1.890,1.328,0.536,0.973,0.896,�k��,1.5,��
2017/07/09,21:50,1.007,1.605,1.067,1.893,1.323,0.534,0.974,0.897,�k��,1.7,��
2017/07/09,22:00,1.009,1.601,1.066,1.893,1.326,0.536,0.974,0.896,�k�k��,1.7,��
2017/07/09,22:10,1.009,1.604,1.067,1.891,1.326,0.536,0.975,0.896,�k�k��,1.2,��
2017/07/09,22:20,1.008,1.602,1.067,1.894,1.326,0.535,0.975,0.896,�k�k��,1.4,��
2017/07/09,22:30,1.008,1.603,1.065,1.895,1.325,0.535,0.974,0.897,�k�k��,2.0,��
2017/07/09,22:40,1.009,1.601,1.067,1.893,1.322,0.536,0.974,0.896,�k�k��,2.3,��
2017/07/09,22:50,1.008,1.602,1.064,1.892,1.325,0.535,0.973,0.898,�k�k��,3.2,��
2017/07/09,23:00,1.008,1.599,1.065,1.893,1.326,0.538,0.974,0.897,�k,2.6,��
2017/07/09,23:10,1.007,1.599,1.065,1.893,1.326,0.534,0.974,0.896,�k�k��,2.0,��
2017/07/09,23:20,1.008,1.601,1.064,1.894,1.328,0.537,0.975,0.895,�k�k��,2.3,��
2017/07/09,23:30,1.009,1.601,1.067,1.892,1.326,0.536,0.974,0.895,�k�k��,2.6,��
2017/07/09,23:40,1.009,1.603,1.065,1.895,1.323,0.536,0.973,0.897,�k�k��,2.5,��
2017/07/09,23:50,1.007,1.603,1.067,1.895,1.326,0.536,0.975,0.895,�k,2.5,��
